Ithaca, NY

11:46 PM EST on November 24, 2017 (GMT -0500)
Tompkins County

Weather History for KITH - October, 2014

Change the Weather History Date:

Tuesday, October 7, 2014

  Actual Average Record
Temperature  
Mean Temperature 61 °F -  
Max Temperature 66 °F 62 °F 87 °F (1941)
Min Temperature 56 °F 40 °F 24 °F (1964)
Degree Days  
Heating Degree Days 4    
Growing Degree Days 11 (Base 50)    
Moisture  
Dew Point 48 °F    
Average Humidity 64    
Maximum Humidity 87    
Minimum Humidity 43    
Precipitation  
Precipitation 0.00 in - - ()
Sea Level Pressure  
Sea Level Pressure 29.88 in    
Wind  
Wind Speed 11 mph (South)    
Max Wind Speed 15 mph    
Max Gust Speed 22 mph    
Visibility 10 miles    
Events Rain    
Averages and records for this station are not official NWS values.
T = Trace of Precipitation, MM = Missing Value Source: NWS Daily Summary

Daily Weather History Graph

Daily Weather History Graph

Search for Another Location

Airport or City:

Trip Planner

Search our weather history database for the weather conditions in past years. The results will help you decide how hot, cold, wet, or windy it might be!

Date:

Astronomy

Oct. 07, 2014 Rise Set
Actual Time 7:09 AM EDT 6:36 PM EDT
Civil Twilight 6:41 AM EDT 7:05 PM EDT
Nautical Twilight 6:08 AM EDT 7:37 PM EDT
Astronomical Twilight 5:36 AM EDT 8:10 PM EDT
Moon 6:11 PM EDT (10/7) 6:02 AM EDT (10/7)
Length of Visible Light 12h 23m
Length of Day
11h 27m
Waxing Gibbous, 99% of the Moon is Illuminated
Oct 7
Waxing Gibbous
Oct 8
Full
Oct 15
Last Quarter
Oct 23
New
Oct 30
First Quarter

Hourly Weather History & Observations

Time (EDT) Temp. Dew Point Humidity Pressure Visibility Wind Dir Wind Speed Gust Speed Precip Events Conditions
12:56 AM 59.9 °F 45.9 °F 60% 29.87 in 10.0 mi South 13.8 mph 21.9 mph 0.00 in   Overcast
1:56 AM 59.9 °F 46.9 °F 62% 29.87 in 10.0 mi South 11.5 mph - N/A   Overcast
2:56 AM 59.9 °F 47.8 °F 64% 29.86 in 10.0 mi South 12.7 mph 20.7 mph N/A   Mostly Cloudy
3:56 AM 59.0 °F 48.9 °F 69% 29.85 in 10.0 mi South 6.9 mph - N/A   Overcast
4:56 AM 57.9 °F 50.9 °F 77% 29.87 in 10.0 mi South 10.4 mph - N/A   Overcast
5:56 AM 56.8 °F 50.0 °F 78% 29.89 in 10.0 mi South 11.5 mph - N/A   Overcast
6:23 AM 57.2 °F 51.8 °F 82% 29.90 in 10.0 mi South 11.5 mph - N/A   Overcast
6:56 AM 56.8 °F 50.9 °F 80% 29.91 in 10.0 mi South 9.2 mph 17.3 mph N/A   Overcast
7:56 AM 56.8 °F 50.9 °F 80% 29.91 in 10.0 mi South 9.2 mph - N/A   Mostly Cloudy
8:56 AM 56.8 °F 50.0 °F 78% 29.93 in 10.0 mi South 9.2 mph - N/A   Mostly Cloudy
9:56 AM 61.0 °F 50.9 °F 69% 29.95 in 10.0 mi SSW 8.1 mph - N/A   Mostly Cloudy
10:56 AM 61.0 °F 48.9 °F 64% 29.95 in 10.0 mi SW 15.0 mph - N/A   Mostly Cloudy
11:56 AM 63.9 °F 46.9 °F 54% 29.94 in 10.0 mi SW 12.7 mph - N/A   Scattered Clouds
12:56 PM 64.9 °F 46.9 °F 52% 29.94 in 10.0 mi SSW 11.5 mph - N/A   Mostly Cloudy
1:56 PM 63.9 °F 47.8 °F 56% 29.94 in 10.0 mi SSW 15.0 mph 20.7 mph N/A   Mostly Cloudy
2:56 PM 66.9 °F 45.9 °F 47% 29.91 in 10.0 mi South 11.5 mph 18.4 mph N/A   Scattered Clouds
3:56 PM 66.9 °F 43.9 °F 43% 29.90 in 10.0 mi South 13.8 mph - N/A   Scattered Clouds
4:56 PM 64.9 °F 45.0 °F 48% 29.88 in 10.0 mi South 6.9 mph - N/A   Mostly Cloudy
5:56 PM 63.9 °F 46.9 °F 54% 29.86 in 10.0 mi SSE 6.9 mph - N/A   Partly Cloudy
6:56 PM 61.0 °F 43.9 °F 53% 29.84 in 10.0 mi South 9.2 mph - N/A   Clear
7:56 PM 59.9 °F 45.0 °F 58% 29.84 in 10.0 mi SSE 8.1 mph - N/A   Clear
8:56 PM 59.9 °F 45.9 °F 60% 29.82 in 10.0 mi SSE 9.2 mph - N/A   Overcast
9:56 PM 61.0 °F 48.9 °F 64% 29.81 in 10.0 mi South 15.0 mph - N/A   Mostly Cloudy
10:56 PM 61.0 °F 50.9 °F 69% 29.78 in 10.0 mi South 15.0 mph 21.9 mph N/A   Mostly Cloudy
11:56 PM 57.9 °F 54.0 °F 87% 29.74 in 10.0 mi SSE 6.9 mph - 0.00 in Rain Light Rain